GFSFLT2_850_dewp_063.txt.gz
Dewpoint
2 1 0 0 0 -0 -1 -1 -5 -15 -23 -28 -27 -25 -24 -21 -15 -11 -8 -5 -5 -4 -4 -3 -3 -3 -3
1 0 -0 -1 -1 -4 -10 -13 -19 -26 -23 -23 -25 -21 -17 -16 -15 -15 -11 -7 -6 -5 -5 -4 -4 -4 -4
-1 -1 -3 -6 -10 -18 -19 -17 -17 -16 -17 -20 -16 -15 -15 -15 -14 -13 -11 -9 -7 -7 -6 -6 -6 -5 -5
-6 -12 -18 -16 -15 -14 -11 -8 -10 -13 -12 -14 -10 -12 -12 -13 -13 -13 -13 -13 -13 -12 -9 -8 -7 -6 -5
-19 -13 -10 -8 -8 -8 -8 -9 -14 -14 -13 -10 -9 -11 -12 -12 -12 -12 -10 -9 -8 -7 -7 -7 -6 -6 -5
-10 -10 -9 -8 -8 -8 -9 -12 -10 -12 -9 -12 -11 -11 -12 -12 -12 -11 -10 -10 -8 -7 -7 -7 -7 -6 -6
-15 -11 -8 -8 -8 -10 -11 -8 -8 -10 -8 -11 -11 -11 -12 -12 -12 -12 -12 -12 -13 -13 -12 -11 -7 -7 -6
-13 -11 -10 -9 -9 -9 -8 -8 -10 -10 -8 -8 -10 -10 -11 -11 -11 -12 -12 -12 -11 -11 -11 -10 -7 -7 -7
-19 -20 -19 -16 -13 -12 -12 -11 -10 -11 -10 -9 -10 -10 -11 -11 -11 -11 -11 -10 -10 -10 -10 -9 -8 -7 -7
-11 -10 -12 -12 -12 -11 -11 -10 -9 -9 -8 -9 -9 -9 -9 -10 -10 -10 -11 -10 -10 -10 -10 -9 -8 -8 -8
-11 -11 -11 -10 -10 -10 -10 -9 -9 -9 -10 -8 -9 -9 -9 -9 -10 -10 -10 -10 -10 -10 -10 -10 -10 -10 -9
-11 -11 -11 -11 -11 -10 -10 -9 -9 -9 -9 -9 -9 -9 -9 -9 -9 -10 -10 -10 -10 -11 -10 -10 -10 -9 -9
-11 -10 -10 -10 -10 -10 -10 -10 -10 -9 -9 -9 -9 -9 -9 -9 -9 -10 -10 -10 -11 -10 -10 -9 -8 -8 -8
-11 -10 -10 -10 -10 -10 -9 -9 -9 -10 -10 -10 -9 -9 -9 -9 -10 -9 -9 -9 -9 -10 -9 -8 -8 -8 -7
-10 -10 -10 -10 -10 -9 -9 -9 -9 -9 -10 -9 -9 -9 -9 -9 -9 -10 -9 -8 -8 -8 -8 -8 -8 -7 -7
-10 -10 -10 -10 -9 -9 -9 -9 -9 -9 -9 -8 -9 -9 -9 -9 -9 -9 -8 -8 -9 -9 -8 -8 -8 -8 -7
-9 -9 -9 -9 -9 -9 -9 -9 -9 -9 -9 -9 -8 -8 -8 -8 -9 -8 -9 -10 -9 -9 -8 -8 -8 -8 -7

GFSFLT2_850_dewp_066.txt.gz
Dewpoint
1 -0 1 1 0 -0 -0 -0 -1 -1 -7 -12 -19 -24 -26 -24 -25 -15 -6 -5 -5 -4 -4 -3 -3 -3 -2
2 1 1 0 -0 -0 -1 -5 -7 -12 -21 -23 -21 -20 -18 -17 -15 -11 -10 -9 -8 -5 -4 -4 -4 -4 -3
1 0 -0 -1 -3 -7 -13 -20 -20 -16 -17 -20 -18 -17 -16 -15 -14 -13 -13 -11 -8 -7 -6 -6 -6 -5 -5
-1 -2 -6 -13 -16 -16 -16 -14 -15 -14 -20 -17 -15 -14 -13 -13 -13 -12 -12 -11 -8 -7 -7 -7 -7 -6 -5
-13 -20 -17 -13 -11 -9 -11 -11 -14 -18 -16 -14 -13 -13 -13 -13 -12 -12 -12 -8 -6 -6 -6 -6 -6 -5 -5
-19 -17 -13 -9 -9 -9 -10 -10 -16 -13 -12 -13 -12 -13 -13 -12 -12 -11 -10 -8 -7 -7 -6 -6 -6 -6 -6
-20 -14 -10 -9 -10 -10 -11 -14 -13 -12 -12 -14 -12 -12 -12 -11 -11 -11 -11 -11 -10 -9 -8 -7 -6 -6 -6
-13 -14 -13 -12 -12 -14 -14 -13 -13 -12 -10 -11 -11 -12 -11 -11 -11 -11 -11 -11 -10 -9 -8 -7 -7 -6 -6
-16 -18 -19 -19 -17 -14 -13 -12 -12 -12 -11 -10 -10 -10 -11 -12 -11 -11 -10 -10 -10 -10 -10 -7 -7 -7 -6
-15 -14 -13 -13 -12 -12 -11 -11 -11 -10 -10 -10 -10 -9 -9 -11 -10 -10 -10 -10 -10 -10 -10 -10 -8 -7 -8
-12 -12 -12 -11 -11 -11 -11 -11 -10 -10 -10 -9 -9 -9 -8 -9 -11 -10 -11 -11 -10 -10 -10 -10 -10 -10 -8
-11 -11 -11 -11 -11 -11 -11 -10 -10 -10 -10 -9 -9 -9 -8 -9 -9 -11 -12 -12 -11 -10 -10 -10 -10 -9 -8
-11 -11 -11 -10 -10 -10 -10 -10 -10 -10 -9 -9 -9 -9 -9 -9 -9 -10 -10 -11 -11 -10 -10 -10 -9 -9 -9
-11 -11 -10 -10 -10 -10 -10 -9 -9 -10 -9 -9 -9 -9 -9 -9 -9 -10 -10 -9 -10 -10 -10 -10 -10 -9 -9
-10 -10 -10 -10 -10 -10 -9 -9 -9 -9 -10 -9 -9 -9 -9 -9 -9 -10 -9 -9 -9 -9 -8 -8 -9 -9 -9
-10 -9 -9 -9 -9 -9 -9 -9 -9 -10 -10 -9 -9 -9 -9 -9 -9 -10 -9 -9 -9 -9 -9 -9 -9 -10 -9
-9 -9 -9 -9 -9 -9 -9 -9 -9 -9 -9 -9 -9 -9 -9 -9 -10 -10 -9 -10 -10 -9 -9 -9 -9 -9 -9

GFSFLT2_850_dewp_072.txt.gz
Dewpoint
4 3 3 2 1 0 1 1 -0 0 -1 -1 -2 -1 -2 -6 -9 -15 -11 -8 -5 -4 -3 -3 -3 -3 -2
2 2 2 1 1 0 -0 -0 -1 -1 -2 -1 -3 -8 -11 -16 -18 -16 -10 -8 -6 -5 -5 -4 -4 -3 -3
2 1 1 1 0 -1 -1 -1 -1 -2 -4 -9 -15 -18 -18 -22 -17 -7 -7 -8 -11 -12 -14 -12 -7 -5 -4
0 0 0 -1 -1 -1 -2 -5 -11 -14 -15 -16 -17 -20 -21 -16 -14 -13 -13 -13 -14 -13 -13 -9 -7 -5 -5
-1 -2 -2 -2 -6 -11 -13 -12 -12 -13 -16 -19 -19 -16 -14 -13 -13 -13 -13 -13 -13 -11 -7 -5 -5 -5 -5
-13 -12 -13 -13 -12 -12 -11 -11 -13 -17 -19 -15 -13 -13 -12 -12 -12 -12 -12 -12 -12 -11 -9 -8 -7 -6 -5
-17 -14 -13 -12 -11 -10 -10 -11 -15 -14 -13 -13 -12 -12 -12 -11 -11 -12 -11 -11 -11 -11 -11 -10 -9 -9 -7
-15 -14 -13 -13 -13 -13 -13 -15 -14 -13 -12 -12 -12 -12 -11 -11 -12 -11 -11 -11 -11 -10 -10 -11 -10 -10 -9
-13 -13 -15 -16 -15 -16 -15 -12 -12 -12 -11 -11 -11 -11 -12 -11 -11 -11 -11 -11 -11 -12 -12 -12 -12 -11 -11
-16 -14 -13 -12 -12 -12 -11 -11 -11 -11 -11 -10 -11 -10 -11 -10 -11 -11 -12 -10 -11 -12 -12 -12 -12 -11 -11
-13 -12 -12 -12 -12 -11 -11 -11 -11 -11 -11 -10 -10 -10 -9 -10 -12 -13 -11 -10 -11 -13 -13 -11 -10 -10 -10
-12 -12 -12 -11 -12 -11 -11 -11 -11 -10 -10 -10 -10 -9 -9 -9 -11 -12 -11 -11 -11 -13 -12 -12 -11 -10 -10
-11 -11 -11 -11 -11 -11 -11 -11 -10 -10 -9 -9 -9 -9 -10 -9 -10 -10 -11 -11 -11 -11 -11 -11 -11 -10 -10
-11 -11 -11 -11 -11 -11 -10 -10 -10 -10 -10 -9 -9 -9 -9 -10 -10 -11 -10 -9 -11 -11 -10 -11 -11 -11 -10
-11 -10 -10 -10 -10 -9 -9 -9 -9 -10 -10 -10 -9 -9 -10 -10 -10 -10 -10 -10 -10 -11 -10 -10 -11 -11 -10
-10 -10 -9 -9 -9 -9 -9 -9 -9 -9 -9 -10 -10 -10 -10 -11 -10 -10 -10 -10 -10 -10 -10 -10 -10 -12 -11
-10 -9 -9 -9 -9 -9 -9 -9 -9 -9 -9 -9 -10 -10 -10 -10 -10 -10 -10 -10 -10 -10 -10 -10 -9 -11 -10

GFSFLT2_850_dewp_078.txt.gz
Dewpoint
3 3 3 2 3 2 1 0 0 -0 -0 -0 -1 -1 -1 -1 -1 -1 -1 -1 -2 -3 -3 -3 -2 -2 -2
2 2 2 2 2 2 1 -0 -0 -1 -1 -1 -1 -1 -2 -2 -2 -2 -2 -2 -7 -7 -4 -4 -3 -3 -3
1 1 1 1 1 0 0 -0 -1 -1 -1 -1 -2 -2 -2 -2 -3 -7 -13 -14 -7 -13 -9 -8 -6 -4 -4
0 0 0 0 -0 -1 -1 -2 -2 -2 -3 -5 -9 -12 -12 -11 -13 -15 -18 -19 -14 -12 -13 -13 -13 -10 -5
-1 -1 -2 -2 -3 -4 -6 -9 -11 -12 -14 -15 -16 -17 -18 -20 -21 -21 -17 -15 -13 -13 -13 -9 -7 -7 -5
-16 -16 -16 -16 -15 -14 -14 -15 -15 -17 -19 -20 -22 -23 -20 -17 -15 -14 -13 -13 -13 -13 -12 -12 -10 -11 -8
-23 -22 -20 -19 -17 -16 -16 -16 -17 -18 -21 -21 -15 -14 -14 -13 -12 -12 -12 -12 -12 -12 -12 -12 -12 -12 -12
-22 -20 -19 -19 -18 -16 -16 -17 -18 -19 -16 -14 -13 -13 -12 -12 -12 -12 -12 -12 -12 -12 -12 -12 -12 -12 -13
-22 -22 -20 -19 -21 -19 -18 -17 -15 -13 -12 -12 -13 -12 -12 -12 -12 -12 -12 -11 -11 -11 -12 -12 -12 -12 -13
-20 -20 -18 -16 -15 -14 -13 -13 -13 -12 -12 -11 -11 -11 -12 -11 -11 -10 -10 -10 -10 -11 -12 -11 -11 -11 -12
-14 -13 -13 -13 -12 -12 -12 -12 -12 -12 -11 -10 -10 -11 -11 -11 -12 -11 -10 -10 -11 -11 -11 -11 -11 -11 -13
-13 -13 -12 -12 -12 -12 -12 -12 -11 -11 -11 -10 -9 -10 -9 -10 -10 -11 -11 -11 -12 -12 -12 -11 -12 -12 -11
-13 -12 -12 -12 -12 -12 -12 -12 -12 -11 -11 -10 -10 -10 -10 -10 -10 -11 -11 -12 -12 -11 -11 -11 -11 -11 -11
-13 -12 -12 -12 -11 -11 -11 -10 -11 -10 -9 -9 -9 -9 -10 -10 -10 -10 -10 -10 -11 -11 -11 -11 -11 -11 -11
-13 -12 -12 -11 -11 -10 -10 -9 -9 -9 -9 -9 -9 -9 -9 -9 -10 -10 -10 -11 -11 -11 -10 -11 -11 -11 -11
-13 -12 -12 -11 -10 -10 -10 -9 -9 -9 -9 -9 -9 -9 -9 -9 -9 -10 -10 -10 -10 -10 -10 -10 -10 -10 -10
-15 -14 -12 -11 -10 -10 -10 -9 -9 -9 -9 -9 -9 -9 -10 -10 -10 -10 -10 -10 -10 -10 -10 -10 -10 -11 -11

GFSFLT2_850_dewp_081.txt.gz
Dewpoint
2 2 2 2 2 2 2 2 2 1 2 2 1 2 1 1 0 0 -0 -1 -1 -1 -1 -2 -2 -2 -2
2 2 2 2 1 1 1 1 1 1 0 0 -0 -0 -0 -1 -1 -1 -1 -2 -2 -1 -3 -6 -3 -3 -3
1 1 1 1 1 1 1 1 1 0 -0 -1 -1 -1 -1 -1 -2 -2 -2 -3 -8 -17 -17 -12 -7 -4 -3
-0 -1 -1 -1 -1 -1 -1 -1 -1 -1 -2 -3 -3 -4 -6 -6 -9 -14 -16 -18 -22 -21 -15 -12 -13 -13 -9
-2 -2 -3 -4 -6 -7 -9 -10 -12 -13 -14 -16 -17 -18 -18 -18 -18 -20 -21 -21 -17 -14 -13 -13 -9 -8 -7
-23 -21 -19 -19 -18 -18 -18 -17 -17 -18 -20 -20 -23 -23 -23 -20 -18 -15 -14 -13 -13 -12 -13 -12 -12 -13 -13
-24 -23 -22 -21 -20 -20 -19 -18 -18 -18 -20 -22 -19 -16 -15 -14 -13 -12 -12 -12 -12 -12 -12 -12 -12 -12 -12
-23 -23 -22 -22 -22 -22 -22 -22 -22 -21 -18 -16 -14 -13 -13 -12 -12 -12 -12 -12 -12 -12 -11 -11 -12 -13 -13
-26 -25 -24 -23 -22 -20 -17 -14 -14 -14 -13 -13 -13 -12 -12 -12 -12 -12 -12 -12 -11 -11 -11 -12 -13 -13 -12
-18 -18 -17 -16 -15 -14 -14 -13 -13 -13 -12 -12 -13 -12 -12 -12 -11 -11 -11 -10 -10 -11 -11 -12 -12 -12 -12
-15 -14 -14 -14 -13 -13 -13 -12 -12 -12 -12 -11 -11 -11 -11 -12 -12 -11 -11 -11 -11 -11 -11 -11 -13 -12 -11
-14 -14 -13 -13 -13 -13 -13 -13 -12 -12 -12 -11 -11 -11 -11 -11 -12 -12 -11 -11 -11 -11 -11 -12 -12 -12 -12
-14 -14 -13 -13 -12 -12 -12 -12 -12 -12 -11 -11 -11 -10 -10 -10 -10 -10 -11 -11 -11 -12 -12 -11 -11 -11 -11
-14 -13 -13 -13 -12 -12 -12 -11 -11 -10 -9 -9 -9 -9 -9 -9 -9 -9 -9 -10 -10 -10 -11 -11 -12 -11 -11
-15 -14 -13 -13 -12 -11 -11 -10 -10 -10 -9 -9 -9 -9 -9 -9 -9 -9 -9 -10 -10 -10 -10 -10 -11 -11 -11
-19 -17 -16 -14 -13 -12 -11 -10 -10 -10 -10 -9 -9 -9 -9 -9 -10 -10 -10 -10 -10 -10 -10 -10 -10 -10 -10
-22 -22 -21 -20 -16 -13 -12 -11 -11 -10 -10 -10 -9 -9 -10 -10 -10 -10 -10 -10 -10 -11 -10 -10 -10 -11 -11

GFSFLT2_850_dewp_084.txt.gz
Dewpoint
2 2 2 2 2 2 2 2 2 2 2 2 2 2 2 2 2 2 1 1 1 1 0 -0 -0 -1 -1
2 1 1 2 1 1 1 1 1 1 1 1 1 1 1 1 0 -1 -1 -1 -1 -2 -1 -1 -1 -2 -2
2 1 1 1 1 1 1 1 1 1 0 0 0 -0 -1 -1 -1 -1 -1 -2 -2 -2 -4 -6 -8 -7 -4
-0 -0 -1 -1 -1 -1 -2 -2 -2 -2 -2 -2 -2 -3 -4 -5 -5 -6 -10 -14 -16 -19 -19 -18 -14 -11 -10
-4 -5 -4 -6 -7 -10 -12 -14 -16 -17 -17 -18 -19 -19 -20 -20 -20 -20 -20 -21 -21 -22 -19 -14 -12 -9 -5
-25 -20 -21 -20 -21 -20 -20 -19 -11 -22 -22 -22 -25 -25 -25 -25 -24 -23 -21 -18 -17 -15 -13 -11 -9 -8 -6
-25 -23 -22 -22 -22 -22 -21 -21 -18 -20 -24 -19 -23 -19 -17 -16 -15 -15 -14 -13 -13 -13 -13 -12 -12 -10 -11
-26 -24 -24 -25 -24 -23 -22 -22 -21 -21 -19 -16 -15 -14 -14 -13 -13 -13 -13 -13 -13 -13 -12 -12 -11 -11 -12
-28 -27 -26 -25 -23 -20 -17 -15 -11 -13 -14 -13 -13 -13 -13 -13 -13 -13 -13 -13 -12 -12 -12 -11 -11 -12 -12
-18 -17 -16 -16 -15 -15 -14 -14 -13 -11 -13 -13 -13 -12 -12 -12 -12 -12 -12 -12 -12 -12 -11 -11 -11 -12 -12
-15 -15 -14 -14 -14 -14 -13 -13 -13 -12 -12 -12 -12 -12 -11 -11 -12 -12 -12 -12 -12 -12 -11 -11 -11 -11 -12
-15 -14 -14 -14 -13 -13 -13 -13 -12 -12 -12 -12 -12 -11 -11 -11 -11 -11 -11 -11 -11 -11 -11 -11 -11 -12 -13
-15 -14 -14 -14 -13 -13 -13 -13 -12 -12 -11 -11 -11 -11 -10 -10 -10 -9 -9 -9 -9 -11 -11 -11 -11 -12 -12
-16 -15 -14 -14 -13 -13 -13 -12 -12 -11 -11 -10 -9 -9 -9 -9 -9 -9 -9 -9 -10 -10 -10 -10 -11 -11 -11
-19 -18 -17 -16 -15 -14 -13 -12 -11 -11 -10 -9 -9 -9 -9 -9 -9 -9 -10 -10 -10 -10 -10 -10 -10 -10 -10
-22 -21 -20 -19 -19 -18 -15 -12 -12 -11 -10 -10 -10 -9 -9 -10 -10 -10 -10 -10 -10 -10 -10 -10 -11 -11 -11
-22 -22 -22 -21 -21 -20 -19 -15 -13 -12 -12 -11 -11 -10 -10 -10 -10 -11 -11 -11 -10 -10 -10 -10 -11 -11 -10

GFSFLT2_850_dewp_087.txt.gz
Dewpoint
3 2 2 2 2 2 2 2 2 1 2 1 2 2 2 2 3 2 2 1 1 1 1 0 0 0 0
2 2 2 1 1 1 1 1 1 1 1 1 1 1 1 1 1 1 0 -0 -1 -1 -1 -1 -1 -1 -1
2 2 1 0 0 0 1 1 0 0 1 0 0 -0 -0 -0 -0 -1 -1 -1 -1 -2 -2 -2 -2 -2 -2
0 -0 -1 -3 -2 -2 -3 -4 -3 -2 -2 -2 -2 -2 -3 -2 -2 -3 -5 -7 -11 -13 -17 -19 -21 -21 -18
-2 -5 -8 -10 -11 -13 -14 -16 -17 -19 -20 -20 -21 -21 -22 -22 -22 -22 -21 -21 -20 -21 -21 -23 -20 -15 -12
-22 -18 -19 -21 -22 -23 -22 -22 -12 -18 -21 -23 -24 -25 -26 -26 -25 -26 -26 -24 -21 -19 -18 -16 -11 -9 -7
-26 -23 -22 -25 -24 -25 -24 -23 -19 -19 -26 -23 -22 -20 -19 -18 -17 -17 -17 -16 -16 -15 -14 -13 -13 -12 -11
-27 -27 -27 -27 -27 -26 -25 -23 -19 -19 -18 -16 -14 -15 -15 -15 -15 -14 -14 -14 -13 -14 -14 -14 -13 -13 -12
-30 -28 -26 -24 -23 -22 -19 -16 -11 -11 -15 -14 -13 -14 -14 -14 -13 -14 -14 -13 -13 -13 -13 -13 -12 -12 -12
-19 -18 -17 -17 -16 -16 -15 -15 -14 -12 -13 -14 -14 -14 -13 -12 -13 -13 -13 -13 -12 -12 -12 -12 -12 -12 -12
-16 -16 -16 -16 -15 -15 -14 -14 -14 -14 -14 -13 -13 -13 -13 -13 -13 -13 -13 -13 -13 -13 -13 -13 -12 -12 -12
-16 -16 -15 -15 -15 -14 -14 -14 -14 -13 -13 -13 -13 -12 -12 -12 -13 -12 -12 -11 -10 -11 -12 -12 -12 -12 -12
-17 -16 -16 -15 -14 -14 -14 -14 -13 -13 -12 -12 -12 -11 -11 -11 -11 -10 -10 -10 -10 -10 -11 -11 -11 -12 -12
-19 -18 -18 -16 -16 -15 -15 -14 -13 -13 -12 -11 -11 -10 -10 -10 -10 -10 -9 -9 -10 -10 -10 -10 -10 -10 -10
-21 -21 -20 -20 -19 -19 -18 -16 -14 -12 -12 -11 -11 -10 -10 -10 -10 -10 -10 -10 -10 -10 -10 -10 -10 -10 -10
-23 -22 -22 -21 -21 -20 -21 -21 -19 -15 -12 -11 -11 -11 -11 -11 -11 -11 -10 -10 -10 -10 -10 -10 -11 -11 -11
-22 -21 -21 -21 -20 -20 -20 -20 -21 -20 -16 -12 -11 -11 -10 -11 -12 -11 -11 -11 -11 -11 -11 -11 -11 -12 -11

GFSFLT2_850_dewp_090.txt.gz
Dewpoint
4 4 2 2 1 1 1 2 2 1 1 1 1 2 2 2 3 3 3 2 2 1 1 0 1 1 1
4 2 2 2 1 1 1 1 1 1 1 1 1 1 1 1 1 1 1 1 0 -0 -0 -1 -1 -0 -1
2 2 2 1 -0 -0 -0 0 0 -0 -0 0 0 0 0 0 -0 -1 -0 -1 -1 -1 -1 -2 -2 -2 -1
1 1 -0 -2 -4 -4 -4 -4 -6 -6 -5 -5 -4 -3 -3 -3 -2 -2 -2 -2 -3 -5 -6 -7 -9 -13 -14
-1 -2 -6 -10 -12 -12 -14 -16 -20 -20 -19 -22 -22 -21 -23 -22 -22 -22 -21 -20 -19 -19 -21 -22 -23 -24 -20
-12 -17 -17 -19 -22 -22 -24 -24 -21 -19 -21 -24 -23 -23 -25 -24 -24 -24 -25 -26 -25 -23 -21 -20 -18 -19 -18
-27 -23 -22 -23 -24 -27 -26 -25 -25 -24 -27 -25 -22 -22 -19 -18 -18 -18 -18 -17 -17 -16 -16 -14 -14 -13 -13
-28 -25 -26 -27 -28 -27 -26 -25 -23 -19 -19 -18 -17 -16 -16 -16 -15 -15 -15 -14 -14 -14 -14 -13 -13 -14 -13
-31 -30 -27 -25 -23 -22 -21 -18 -17 -16 -15 -15 -16 -15 -15 -15 -14 -14 -14 -13 -13 -13 -13 -12 -13 -13 -12
-22 -19 -18 -18 -17 -17 -17 -16 -16 -15 -14 -14 -15 -15 -14 -14 -13 -14 -13 -13 -13 -12 -12 -12 -12 -13 -12
-18 -17 -17 -17 -16 -16 -16 -15 -15 -14 -15 -14 -14 -14 -14 -15 -14 -13 -13 -13 -13 -13 -13 -13 -13 -13 -13
-18 -18 -17 -17 -16 -16 -16 -15 -15 -15 -14 -14 -13 -13 -13 -14 -14 -13 -12 -12 -11 -10 -10 -11 -11 -12 -12
-18 -19 -18 -17 -17 -17 -17 -16 -16 -15 -14 -13 -13 -12 -12 -12 -12 -12 -11 -11 -10 -10 -10 -10 -10 -10 -10
-21 -21 -20 -20 -20 -20 -21 -21 -21 -18 -15 -14 -12 -12 -11 -11 -11 -11 -10 -10 -10 -10 -10 -10 -11 -11 -11
-23 -23 -22 -22 -21 -21 -22 -22 -22 -22 -20 -16 -13 -12 -12 -11 -12 -12 -11 -11 -10 -10 -10 -11 -11 -11 -10
-24 -24 -22 -21 -20 -20 -20 -21 -21 -21 -21 -20 -16 -13 -13 -14 -14 -14 -12 -12 -11 -11 -11 -11 -13 -13 -12
-25 -24 -22 -21 -20 -20 -20 -20 -20 -20 -19 -19 -18 -14 -13 -15 -16 -14 -13 -12 -11 -12 -12 -12 -12 -13 -12

GFSFLT2_850_dewp_093.txt.gz
Dewpoint
4 4 3 4 2 1 1 1 1 1 1 1 1 2 2 3 3 4 4 4 3 3 2 1 1 0 0
3 3 3 2 2 1 1 1 1 1 0 0 1 1 1 1 1 1 2 2 1 1 0 -0 -0 -0 0
3 2 2 2 1 -0 -1 -0 -0 -0 -1 -0 -0 -0 0 0 0 0 0 -0 -1 -1 -1 -1 -1 -1 -1
2 2 1 0 -1 -3 -4 -4 -5 -7 -8 -7 -6 -6 -4 -3 -2 -2 -1 -1 -1 -2 -3 -5 -4 -3 -3
1 -0 -1 -3 -8 -9 -9 -10 -15 -18 -19 -20 -22 -24 -24 -23 -23 -23 -22 -21 -20 -21 -21 -22 -23 -23 -23
-1 -5 -12 -16 -18 -20 -20 -20 -23 -19 -19 -23 -25 -23 -25 -25 -26 -27 -27 -27 -27 -25 -24 -22 -22 -22 -20
-22 -25 -23 -22 -23 -25 -26 -25 -25 -25 -25 -25 -22 -22 -20 -18 -18 -18 -18 -18 -18 -18 -18 -17 -16 -15 -14
-30 -26 -24 -26 -27 -28 -29 -27 -25 -21 -19 -19 -17 -16 -16 -16 -15 -15 -15 -15 -15 -14 -14 -14 -14 -14 -14
-28 -28 -29 -29 -26 -23 -23 -20 -19 -16 -16 -16 -17 -16 -16 -16 -15 -15 -14 -14 -14 -14 -13 -13 -13 -13 -13
-29 -24 -21 -20 -19 -18 -18 -17 -17 -17 -16 -16 -16 -16 -15 -14 -13 -14 -14 -14 -13 -13 -13 -13 -12 -12 -13
-19 -18 -18 -18 -18 -17 -17 -16 -16 -16 -16 -15 -16 -15 -15 -15 -14 -14 -14 -14 -13 -13 -13 -13 -13 -13 -13
-18 -18 -18 -18 -17 -17 -17 -17 -16 -16 -15 -15 -15 -14 -15 -15 -14 -14 -13 -13 -12 -12 -11 -11 -10 -10 -11
-19 -19 -19 -19 -19 -19 -20 -19 -19 -18 -17 -16 -15 -14 -14 -14 -13 -13 -13 -12 -11 -11 -10 -10 -10 -10 -10
-19 -20 -20 -21 -21 -21 -21 -21 -21 -22 -21 -20 -17 -15 -14 -13 -12 -13 -12 -12 -11 -10 -11 -11 -11 -11 -11
-21 -21 -22 -22 -21 -21 -20 -19 -20 -21 -21 -22 -21 -18 -16 -15 -15 -14 -13 -13 -12 -11 -12 -13 -13 -12 -12
-24 -24 -24 -23 -22 -20 -18 -18 -19 -20 -20 -20 -20 -20 -19 -17 -17 -16 -15 -14 -13 -12 -12 -13 -14 -13 -13
-26 -25 -25 -24 -22 -19 -18 -18 -18 -19 -19 -19 -18 -18 -17 -16 -15 -15 -14 -13 -13 -12 -12 -12 -12 -12 -12

GFSFLT2_850_dewp_096.txt.gz
Dewpoint
6 5 4 3 2 3 1 1 1 1 1 1 1 2 2 4 4 4 4 5 5 5 4 4 2 1 1
5 4 3 2 2 2 1 0 0 1 1 -0 0 1 2 2 2 2 3 3 3 3 2 1 0 -0 -1
3 3 2 2 2 1 -0 -1 -0 0 -0 -0 -1 -0 0 0 0 1 1 1 1 0 -0 -1 -1 -1 -1
2 2 2 2 1 -0 -2 -4 -4 -5 -7 -7 -6 -6 -5 -3 -2 -1 -1 -1 -1 -1 -1 -1 -2 -3 -2
2 1 1 1 -1 -3 -6 -8 -11 -16 -19 -20 -21 -22 -23 -23 -22 -20 -17 -13 -9 -9 -11 -13 -16 -18 -19
1 -0 -1 -2 -7 -11 -12 -16 -20 -22 -20 -21 -24 -25 -25 -26 -27 -28 -28 -28 -28 -27 -27 -27 -26 -25 -24
-2 -6 -12 -16 -16 -20 -21 -24 -25 -24 -22 -26 -25 -23 -22 -20 -20 -20 -20 -20 -21 -21 -21 -19 -19 -18 -16
-19 -19 -22 -20 -22 -23 -27 -27 -25 -24 -23 -22 -20 -18 -17 -17 -17 -16 -16 -16 -16 -15 -15 -14 -14 -14 -14
-29 -27 -24 -26 -26 -27 -26 -25 -23 -18 -17 -17 -17 -17 -16 -16 -16 -16 -15 -14 -14 -14 -14 -14 -14 -14 -14
-29 -30 -29 -26 -22 -21 -20 -19 -18 -18 -17 -17 -17 -16 -16 -16 -15 -14 -14 -15 -14 -14 -14 -14 -14 -14 -14
-26 -23 -20 -19 -19 -18 -18 -18 -17 -17 -17 -16 -16 -16 -15 -15 -15 -15 -15 -14 -14 -14 -14 -14 -14 -14 -14
-21 -19 -18 -18 -18 -17 -18 -17 -17 -17 -17 -16 -16 -15 -15 -15 -14 -14 -14 -14 -13 -13 -13 -12 -12 -12 -11
-19 -18 -18 -17 -18 -18 -19 -19 -20 -20 -20 -19 -17 -16 -16 -15 -14 -13 -13 -12 -12 -12 -12 -11 -11 -11 -11
-20 -18 -18 -18 -19 -19 -21 -21 -20 -21 -21 -22 -21 -20 -18 -16 -15 -14 -13 -12 -12 -11 -11 -11 -11 -11 -12
-21 -20 -19 -19 -20 -21 -21 -20 -19 -20 -21 -21 -21 -21 -21 -19 -18 -17 -15 -14 -14 -13 -14 -14 -13 -13 -13
-22 -21 -21 -21 -22 -22 -21 -19 -18 -19 -20 -20 -20 -19 -19 -18 -18 -17 -16 -16 -14 -14 -14 -14 -14 -14 -13
-23 -23 -23 -23 -23 -23 -22 -20 -17 -17 -19 -19 -19 -19 -18 -17 -16 -16 -16 -15 -14 -13 -12 -13 -13 -13 -12

GFSFLT2_850_dewp_099.txt.gz
Dewpoint
6 6 5 5 4 3 3 2 1 1 1 1 1 2 3 4 4 6 6 6 5 5 5 5 4 3 3
6 5 5 4 3 2 2 1 1 0 0 0 1 1 2 3 3 3 3 3 3 4 4 4 3 2 1
4 4 4 3 2 2 2 1 -0 0 0 0 -0 -0 1 1 2 2 2 1 1 2 1 1 0 -0 -1
3 3 2 2 2 2 1 -0 -2 -2 -2 -3 -4 -4 -4 -2 -1 -1 -0 0 1 1 0 -1 -1 -1 -1
2 2 2 2 2 1 -0 -3 -6 -8 -12 -17 -20 -20 -21 -20 -14 -9 -5 -3 -2 -1 -2 -2 -3 -4 -7
2 2 2 1 1 -0 -3 -8 -10 -15 -19 -20 -21 -23 -25 -26 -27 -28 -28 -28 -28 -28 -26 -27 -27 -28 -28
1 1 -0 -1 -2 -5 -11 -13 -17 -21 -21 -21 -26 -26 -25 -24 -24 -26 -25 -25 -27 -27 -28 -26 -24 -23 -23
-1 -2 -7 -11 -14 -15 -18 -20 -21 -23 -24 -25 -24 -22 -21 -19 -18 -18 -17 -18 -19 -19 -18 -17 -16 -16 -15
-15 -23 -17 -20 -19 -20 -24 -25 -25 -23 -21 -19 -19 -18 -17 -17 -17 -17 -15 -16 -16 -16 -15 -15 -15 -15 -15
-27 -27 -24 -24 -27 -25 -24 -24 -22 -20 -18 -17 -18 -18 -17 -18 -17 -16 -16 -16 -15 -15 -15 -15 -14 -14 -14
-25 -26 -26 -24 -22 -20 -19 -18 -18 -18 -18 -17 -17 -17 -17 -17 -16 -15 -14 -15 -15 -15 -15 -14 -14 -14 -14
-23 -23 -19 -18 -17 -17 -17 -17 -17 -17 -17 -17 -17 -17 -16 -15 -15 -16 -15 -15 -15 -15 -15 -14 -14 -14 -14
-21 -19 -17 -16 -17 -17 -17 -17 -17 -18 -19 -20 -19 -19 -17 -16 -15 -15 -14 -14 -14 -14 -14 -13 -12 -12 -12
-20 -17 -16 -17 -17 -17 -18 -19 -20 -21 -20 -20 -20 -21 -21 -19 -17 -16 -14 -13 -13 -13 -13 -13 -12 -12 -12
-22 -21 -18 -17 -18 -18 -19 -20 -20 -20 -18 -19 -19 -20 -20 -21 -20 -19 -17 -16 -15 -14 -15 -15 -14 -14 -14
-22 -22 -20 -19 -19 -19 -21 -21 -21 -19 -18 -18 -19 -19 -18 -17 -16 -17 -17 -17 -16 -16 -15 -15 -15 -14 -14
-22 -21 -22 -22 -20 -21 -22 -22 -22 -20 -18 -17 -17 -17 -17 -15 -15 -16 -16 -16 -16 -15 -15 -15 -15 -14 -13

GFSFLT2_850_dewp_102.txt.gz
Dewpoint
5 6 6 6 5 5 4 3 2 1 1 1 1 2 3 4 5 6 6 6 7 7 6 6 6 5 5
5 5 5 5 5 4 3 2 2 1 0 0 0 1 2 3 3 5 5 5 5 5 5 5 5 4 3
3 4 4 4 4 3 2 2 2 0 -0 0 -0 -1 0 2 2 2 3 2 2 2 2 2 3 1 0
2 3 3 3 2 2 2 1 1 -0 -1 -1 -1 -2 -3 0 1 2 2 2 2 1 1 0 1 0 -1
1 1 1 1 1 1 1 1 -0 -2 -4 -6 -10 -12 -12 -10 -5 -3 -1 -1 -0 -0 0 -0 -1 -1 -2
1 1 1 1 1 1 1 1 -2 -6 -9 -15 -19 -20 -21 -24 -24 -25 -20 -14 -8 -5 -3 -2 -4 -6 -10
1 1 1 1 1 1 0 -2 -6 -11 -21 -19 -20 -22 -24 -23 -25 -27 -29 -29 -29 -29 -30 -30 -30 -29 -29
1 1 0 -1 -3 -2 -5 -9 -13 -17 -21 -22 -24 -24 -22 -20 -20 -20 -20 -21 -22 -23 -24 -22 -21 -20 -18
-0 -1 -3 -8 -10 -13 -16 -18 -20 -22 -23 -23 -22 -21 -18 -18 -18 -18 -17 -17 -17 -17 -16 -16 -15 -15 -15
-25 -24 -22 -19 -17 -19 -21 -23 -24 -24 -22 -18 -18 -18 -17 -17 -17 -17 -17 -17 -15 -15 -15 -15 -15 -15 -15
-20 -22 -22 -21 -23 -25 -23 -23 -22 -20 -17 -17 -18 -17 -18 -17 -18 -17 -17 -16 -16 -16 -15 -15 -15 -15 -14
-21 -23 -24 -23 -20 -20 -19 -18 -18 -18 -17 -17 -17 -17 -17 -17 -16 -17 -16 -16 -16 -16 -16 -16 -16 -15 -15
-19 -21 -18 -17 -17 -17 -17 -17 -17 -17 -17 -17 -18 -18 -17 -17 -17 -17 -16 -16 -16 -15 -15 -15 -15 -14 -14
-18 -17 -17 -16 -16 -16 -16 -17 -17 -18 -19 -19 -19 -20 -20 -20 -20 -20 -18 -16 -16 -15 -15 -15 -14 -14 -13
-19 -19 -18 -16 -16 -16 -17 -17 -18 -19 -20 -20 -17 -17 -18 -19 -19 -20 -20 -19 -18 -16 -16 -16 -15 -14 -14
-22 -21 -19 -19 -18 -17 -17 -18 -19 -20 -20 -19 -17 -17 -17 -16 -14 -14 -15 -17 -18 -18 -18 -17 -16 -15 -15
-22 -21 -20 -20 -19 -19 -18 -18 -19 -20 -21 -20 -17 -16 -17 -15 -14 -13 -13 -15 -16 -16 -16 -16 -16 -15 -15

GFSFLT2_850_dewp_105.txt.gz
Dewpoint
5 4 5 4 5 5 5 4 4 3 2 1 1 2 2 4 5 7 7 7 7 7 6 6 6 6 5
4 4 4 5 5 4 4 4 3 2 1 0 0 1 2 3 5 5 6 6 7 7 7 6 6 6 5
3 3 3 4 4 4 3 3 2 1 0 -0 -0 -0 -0 2 2 3 4 5 4 5 5 5 5 4 4
2 2 2 3 3 3 2 2 1 1 0 -1 -1 -1 -2 -1 2 2 2 2 2 2 1 1 1 1 0
1 1 2 2 2 2 1 1 1 0 -1 -2 -3 -4 -6 -6 -2 1 1 1 1 1 1 1 1 0 0
1 1 1 1 1 1 1 0 -0 -0 -3 -6 -9 -15 -20 -21 -19 -10 -5 -3 -2 -1 -1 -0 -0 -1 -1
0 1 1 1 0 0 -0 -0 0 -2 -12 -11 -15 -18 -20 -22 -24 -26 -27 -27 -24 -18 -12 -8 -6 -7 -12
1 1 1 1 0 -0 -0 -0 -1 -5 -9 -19 -21 -20 -23 -22 -23 -24 -26 -27 -27 -28 -29 -30 -29 -27 -27
0 0 0 -0 -3 -4 -5 -5 -9 -13 -17 -20 -23 -24 -22 -19 -19 -18 -18 -18 -20 -20 -20 -20 -20 -18 -17
-11 -10 -8 -11 -9 -13 -13 -13 -15 -20 -23 -22 -20 -19 -18 -18 -17 -17 -16 -16 -16 -16 -16 -16 -16 -15 -15
-20 -20 -20 -18 -17 -18 -17 -19 -21 -23 -19 -20 -18 -17 -18 -18 -18 -17 -17 -16 -16 -16 -15 -15 -15 -15 -15
-20 -20 -21 -21 -22 -23 -23 -22 -22 -21 -19 -18 -17 -17 -17 -18 -17 -17 -17 -16 -16 -15 -15 -15 -16 -15 -15
-19 -20 -21 -21 -19 -17 -18 -17 -17 -17 -17 -17 -17 -16 -17 -17 -17 -17 -17 -17 -16 -16 -16 -16 -16 -16 -15
-19 -18 -20 -19 -17 -16 -16 -16 -16 -17 -17 -17 -18 -18 -18 -18 -17 -18 -18 -17 -17 -16 -16 -16 -15 -15 -14
-21 -19 -18 -18 -17 -16 -16 -16 -16 -17 -18 -19 -19 -18 -16 -16 -16 -18 -18 -18 -18 -18 -17 -16 -16 -15 -15
-22 -22 -21 -20 -20 -18 -16 -16 -17 -17 -18 -19 -20 -18 -16 -15 -14 -15 -14 -14 -15 -16 -17 -18 -18 -16 -16
-22 -22 -22 -21 -21 -20 -19 -18 -18 -18 -18 -18 -20 -20 -18 -16 -14 -13 -12 -13 -13 -14 -15 -16 -16 -16 -15

GFSFLT2_850_dewp_108.txt.gz
Dewpoint
4 4 4 5 4 3 5 5 4 4 3 3 2 1 2 4 5 6 6 7 6 5 7 7 7 7 6
3 4 4 3 4 4 4 4 3 3 2 2 1 -0 2 3 4 5 6 7 8 7 7 7 7 7 6
3 3 3 2 2 3 4 3 3 2 2 1 0 -1 0 2 3 4 5 5 6 6 7 7 6 6 6
1 1 2 2 2 3 3 2 2 2 1 1 -0 -1 -1 -2 1 2 3 4 4 4 4 4 5 5 4
1 1 1 1 2 2 2 2 1 1 1 0 -1 -2 -4 -5 -2 1 2 2 2 2 2 2 1 1 0
0 1 1 1 1 1 1 1 1 0 0 -0 -3 -6 -12 -16 -15 -5 1 1 1 1 1 1 1 1 1
0 0 1 1 1 1 1 0 0 -0 -2 -3 -6 -10 -17 -19 -21 -23 -21 -11 -6 -4 -3 -2 -1 -1 -1
0 1 1 1 1 0 -0 -0 -1 -1 -1 -9 -16 -18 -19 -21 -23 -24 -26 -27 -28 -28 -27 -22 -15 -13 -12
-0 0 0 0 0 0 -1 -1 -1 -1 -4 -10 -18 -21 -22 -23 -22 -21 -20 -22 -24 -24 -26 -27 -27 -26 -24
-5 -3 -2 -0 -0 -2 -5 -3 -3 -9 -15 -16 -21 -22 -22 -21 -19 -18 -18 -17 -17 -18 -19 -19 -19 -17 -16
-18 -20 -20 -17 -15 -11 -12 -12 -12 -13 -22 -22 -22 -19 -18 -17 -18 -17 -16 -16 -16 -16 -16 -16 -15 -15 -15
-19 -19 -20 -19 -18 -18 -17 -18 -19 -20 -22 -17 -19 -16 -17 -18 -18 -17 -17 -17 -17 -16 -16 -15 -15 -15 -15
-20 -19 -20 -22 -22 -21 -22 -22 -20 -21 -20 -18 -17 -16 -16 -16 -16 -16 -17 -17 -17 -16 -16 -15 -16 -16 -16
-21 -19 -18 -21 -19 -17 -17 -17 -16 -16 -16 -16 -16 -16 -16 -16 -16 -16 -16 -16 -16 -17 -16 -16 -16 -16 -16
-20 -19 -18 -18 -18 -16 -16 -16 -16 -16 -16 -16 -17 -17 -18 -17 -16 -16 -16 -17 -17 -17 -17 -17 -16 -16 -16
-19 -19 -19 -18 -18 -18 -16 -15 -15 -15 -16 -17 -18 -19 -19 -17 -14 -14 -15 -15 -15 -15 -15 -15 -15 -17 -17
-21 -21 -21 -20 -19 -19 -18 -18 -17 -17 -16 -17 -17 -18 -19 -19 -17 -15 -14 -14 -13 -13 -13 -13 -13 -15 -16

GFSFLT2_850_dewp_111.txt.gz
Dewpoint
4 4 4 3 3 5 4 4 4 4 4 4 2 2 1 1 4 5 6 6 5 5 6 7 8 8 6
4 3 3 3 3 3 3 3 4 3 3 3 1 1 -0 1 3 5 6 7 7 6 7 8 7 7 6
2 2 2 2 2 2 1 2 3 3 2 2 1 1 -1 1 2 4 5 5 7 7 7 7 7 7 7
1 1 1 1 2 1 1 2 2 2 2 1 1 1 -2 -1 1 2 3 4 4 5 6 6 6 6 5
0 0 0 1 1 1 2 2 2 2 1 1 0 -0 -3 -4 -4 -0 2 2 3 3 3 3 3 4 4
-0 -0 0 1 1 1 1 1 1 1 1 0 0 -1 -5 -10 -12 -6 -0 1 1 1 1 2 2 1 1
-1 -0 0 0 1 1 1 1 1 1 0 -0 -1 -2 -8 -14 -20 -22 -14 -2 1 1 1 1 0 0 0
-0 -0 0 0 0 0 0 0 -0 -0 -0 -1 -3 -12 -14 -17 -20 -24 -25 -25 -19 -10 -6 -5 -4 -3 -2
-0 -0 0 0 0 0 0 -0 -1 -1 -1 -1 -3 -13 -19 -20 -22 -23 -23 -28 -29 -29 -29 -29 -28 -24 -21
-6 -4 -1 -0 0 -0 -0 -1 -2 -2 -3 -4 -10 -18 -22 -23 -21 -19 -20 -20 -20 -22 -23 -24 -25 -25 -25
-13 -14 -18 -17 -7 -3 -4 -5 -5 -4 -13 -20 -18 -21 -21 -17 -20 -18 -18 -17 -18 -18 -18 -18 -18 -18 -17
-19 -18 -19 -19 -18 -17 -14 -13 -13 -13 -14 -21 -20 -19 -18 -18 -17 -17 -17 -18 -18 -17 -17 -17 -16 -16 -16
-22 -20 -19 -19 -20 -19 -19 -19 -20 -20 -20 -21 -17 -17 -16 -17 -16 -16 -16 -16 -17 -17 -17 -17 -17 -16 -16
-21 -21 -19 -19 -21 -20 -19 -18 -19 -18 -19 -18 -17 -17 -16 -16 -15 -15 -16 -16 -15 -16 -16 -16 -16 -16 -16
-20 -21 -20 -18 -18 -18 -17 -16 -16 -16 -16 -16 -16 -16 -16 -16 -16 -16 -16 -15 -15 -16 -16 -16 -16 -16 -16
-19 -19 -20 -18 -18 -17 -17 -16 -16 -16 -16 -16 -17 -17 -18 -18 -18 -16 -15 -14 -15 -16 -15 -15 -14 -14 -14
-20 -20 -20 -20 -20 -20 -19 -18 -18 -17 -16 -16 -16 -17 -17 -18 -19 -18 -16 -14 -14 -14 -14 -13 -13 -13 -13

GFSFLT2_850_dewp_114.txt.gz
Dewpoint
3 3 4 4 2 2 3 3 3 3 3 4 3 3 1 1 -0 3 5 6 5 5 4 3 5 7 8
2 3 4 3 1 3 2 2 2 2 3 3 3 1 1 0 -0 3 5 6 7 4 5 5 6 7 7
3 3 2 1 2 2 2 1 1 1 2 2 2 0 0 -1 0 3 5 5 7 6 7 8 8 5 4
2 2 1 0 1 1 1 1 1 1 2 2 1 0 1 -3 -1 1 3 4 5 7 7 7 6 6 5
1 1 -0 -0 -0 1 1 1 1 1 2 1 0 -0 0 -4 -5 -3 1 3 4 4 5 5 5 5 5
0 -0 -1 -0 0 0 1 1 1 0 1 0 0 -0 0 -5 -10 -10 -2 1 2 3 3 3 3 3 4
-0 -1 -1 0 0 0 1 1 0 0 1 0 -0 -0 -1 -6 -13 -20 -20 -6 1 1 1 2 2 2 2
-1 -0 -0 -0 0 0 0 0 0 0 -0 -0 -1 -1 -8 -12 -15 -20 -22 -23 -17 -3 -0 0 1 1 0
-1 -1 -1 -1 -0 -0 0 0 0 -0 -1 -1 -2 -2 -8 -19 -20 -21 -24 -26 -26 -26 -20 -15 -9 -6 -3
-2 -3 -3 -1 -1 -0 -0 -0 -1 -2 -2 -2 -2 -3 -19 -22 -23 -23 -22 -23 -25 -26 -28 -28 -27 -27 -24
-8 -10 -10 -13 -11 -2 -1 -1 -1 -2 -5 -16 -13 -14 -18 -21 -22 -22 -20 -19 -18 -18 -20 -21 -23 -24 -24
-20 -19 -18 -19 -19 -18 -14 -10 -8 -6 -6 -8 -18 -20 -21 -21 -18 -18 -19 -17 -17 -17 -17 -18 -17 -18 -17
-20 -21 -21 -19 -19 -19 -17 -16 -15 -14 -14 -15 -19 -18 -18 -17 -17 -17 -17 -17 -17 -17 -17 -17 -17 -17 -17
-19 -21 -22 -19 -18 -20 -20 -20 -20 -20 -20 -20 -20 -20 -17 -16 -16 -16 -15 -15 -15 -16 -16 -17 -17 -17 -17
-19 -19 -20 -19 -18 -18 -19 -17 -16 -17 -16 -16 -16 -16 -16 -17 -16 -16 -16 -16 -15 -15 -15 -15 -16 -16 -16
-19 -19 -18 -19 -18 -18 -17 -17 -16 -16 -16 -16 -16 -16 -16 -17 -17 -17 -17 -15 -15 -15 -15 -15 -15 -15 -14
-19 -20 -19 -19 -19 -20 -20 -18 -18 -17 -16 -15 -15 -15 -16 -18 -18 -18 -18 -17 -15 -14 -14 -14 -13 -14 -14

GFSFLT2_850_dewp_117.txt.gz
Dewpoint
3 3 3 2 3 3 1 2 2 2 2 1 2 2 2 1 0 -1 3 3 5 6 4 4 0 2 4
2 1 1 2 2 2 1 2 2 1 1 1 1 2 1 0 0 -0 4 4 5 6 5 3 1 4 6
1 0 1 2 1 1 1 1 1 1 1 1 1 1 0 -0 -1 0 4 5 6 7 5 5 5 6 7
0 0 0 1 0 -0 0 1 1 0 0 1 1 0 -0 -0 -1 -2 3 4 5 7 7 7 7 5 4
-0 0 1 1 -0 -0 -0 0 0 1 1 1 1 -0 -1 -0 -2 -5 -0 3 4 5 6 6 5 4 3
-0 -0 -0 -1 -1 -0 -0 -0 1 0 -0 0 0 -0 -0 -0 -3 -10 -7 1 3 4 4 5 4 5 5
-0 -1 -1 -1 -1 -0 -0 0 0 0 -0 -0 -0 -1 -1 -2 -3 -11 -18 -6 2 2 3 3 3 3 4
-0 -1 -1 -0 -0 -0 0 0 0 0 0 -0 -1 -1 -1 -3 -13 -13 -19 -22 -8 1 2 2 2 2 2
-1 -1 -1 -1 -1 -1 -0 -0 0 0 -0 -1 -1 -2 -2 -3 -16 -21 -21 -24 -25 -14 -1 0 1 1 1
-1 -2 -3 -3 -2 -1 -1 -0 -0 -1 -1 -2 -3 -3 -6 -21 -19 -21 -23 -23 -25 -28 -27 -18 -11 -6 -2
-3 -6 -8 -8 -9 -8 -2 -1 -1 -1 -2 -7 -15 -14 -8 -13 -19 -22 -21 -19 -19 -22 -23 -25 -27 -27 -24
-14 -19 -20 -18 -18 -19 -18 -14 -8 -6 -8 -7 -6 -14 -19 -20 -20 -18 -21 -18 -17 -17 -17 -18 -20 -20 -20
-19 -21 -23 -22 -20 -20 -19 -18 -17 -15 -14 -13 -11 -15 -18 -18 -18 -17 -17 -17 -18 -17 -16 -16 -16 -15 -16
-19 -21 -21 -22 -22 -20 -20 -21 -21 -21 -20 -19 -18 -18 -20 -17 -17 -17 -17 -15 -15 -16 -17 -17 -17 -16 -16
-19 -19 -20 -22 -21 -19 -19 -20 -19 -17 -17 -17 -17 -18 -18 -17 -18 -17 -16 -16 -16 -16 -15 -15 -16 -16 -15
-17 -19 -21 -20 -20 -20 -19 -18 -18 -17 -16 -16 -15 -16 -16 -16 -17 -17 -17 -17 -17 -16 -15 -14 -14 -15 -15
-19 -19 -21 -20 -19 -19 -19 -19 -19 -18 -17 -16 -15 -15 -15 -16 -17 -17 -18 -18 -18 -17 -15 -14 -14 -15 -15

GFSFLT2_850_dewp_120.txt.gz
Dewpoint
3 3 3 3 2 2 1 1 1 1 1 2 1 1 1 1 1 -0 -1 3 3 4 5 4 4 2 -3
2 3 2 1 0 -0 0 0 0 1 1 1 1 0 0 0 -0 -0 0 4 4 4 5 4 3 2 1
1 1 1 0 -0 -0 -0 -1 0 1 1 0 0 0 0 -0 -0 -0 -0 4 5 6 6 6 4 3 4
-0 -0 -0 -0 -0 0 -1 -1 0 1 0 0 0 -0 -0 -0 -1 -1 -2 4 5 6 7 7 6 6 5
-1 -0 -0 -0 0 -1 -1 -0 0 0 0 0 -0 -0 -1 -1 -1 -1 -5 3 4 5 6 6 5 4 4
-1 -1 -0 -0 -1 -1 -0 -0 -0 0 -0 -0 -0 -1 -1 -1 -0 -1 -10 -1 3 4 5 5 6 5 5
-1 -1 -1 -1 -1 -1 -1 -1 -0 0 0 -0 -1 -1 -1 -1 -2 -4 -11 -12 2 3 4 4 4 5 4
-0 -0 -1 -1 -1 -1 -1 -0 -0 0 0 -0 -0 -1 -1 -1 -2 -13 -13 -20 -10 2 3 3 3 4 4
-1 -1 -1 -1 -1 -1 -1 -1 -0 0 0 -0 -1 -2 -2 -2 -3 -14 -21 -21 -23 -14 0 2 2 2 3
-1 -1 -1 -2 -2 -1 -1 -0 -1 -0 -0 -1 -4 -5 -4 -20 -20 -19 -21 -23 -25 -26 -17 -3 1 1 2
-1 -2 -2 -3 -5 -5 -4 -1 -1 -1 -1 -1 -4 -13 -13 -10 -18 -19 -22 -21 -20 -25 -27 -26 -19 -9 -3
-2 -6 -13 -18 -16 -16 -16 -15 -9 -3 -2 -4 -6 -6 -15 -20 -21 -19 -21 -20 -18 -18 -19 -21 -23 -26 -24
-15 -19 -19 -21 -21 -19 -19 -18 -17 -16 -14 -14 -11 -10 -14 -18 -18 -17 -17 -17 -18 -18 -17 -17 -18 -19 -20
-18 -21 -21 -21 -21 -20 -20 -20 -20 -20 -19 -18 -17 -17 -17 -19 -18 -16 -17 -15 -15 -16 -17 -17 -17 -17 -17
-20 -20 -19 -19 -22 -22 -19 -19 -20 -18 -17 -18 -18 -18 -19 -20 -19 -17 -16 -16 -15 -15 -14 -15 -16 -16 -16
-19 -17 -19 -20 -20 -20 -19 -18 -18 -18 -16 -16 -16 -16 -16 -16 -16 -16 -16 -16 -16 -16 -16 -15 -15 -15 -15
-17 -20 -19 -19 -20 -20 -19 -19 -18 -18 -17 -16 -15 -16 -16 -16 -16 -17 -17 -18 -18 -18 -17 -16 -14 -14 -15

GFSFLT2_850_dewp_126.txt.gz
Dewpoint
8 9 7 3 3 3 3 1 -0 -1 -1 -1 0 1 1 0 0 -0 -1 -2 2 3 3 4 4 4 3
9 7 2 3 3 3 2 1 -1 -1 -1 -1 -0 1 0 -0 -0 -0 -1 -2 3 4 5 5 5 3 1
6 2 2 3 3 2 1 -0 -0 -1 -1 -0 -0 -0 -0 -0 -0 -1 -1 -1 4 4 5 4 5 3 2
2 2 3 2 1 0 -0 -0 -0 -1 -1 -0 -0 0 0 -0 -1 -1 -1 -1 4 5 6 6 6 5 5
3 3 1 0 -1 -1 -1 -1 -1 -1 -1 -1 -0 -0 -1 -1 -1 -1 -1 -2 4 4 5 5 5 5 5
2 0 -0 -1 -1 -1 -1 -1 -1 -1 -1 -0 -0 -0 -1 -1 -1 -1 -1 -5 4 4 5 5 5 5 5
0 -0 -1 -1 -1 -1 -1 -1 -1 -1 -1 -1 -1 -1 -1 -1 -1 -1 -1 -7 -0 4 4 5 3 2 2
0 -1 -1 -1 -1 -1 -1 -1 -1 -1 -1 -1 -1 -1 -1 -1 -1 -2 -2 -11 -10 3 3 4 3 4 3
-1 -1 -1 -1 -1 -1 -1 -1 -1 -1 -1 -1 -1 -1 -2 -6 -5 -2 -4 -17 -16 -5 3 3 4 4 3
-1 -1 -1 -1 -1 -1 -1 -1 -1 -1 -1 -1 -1 -1 -7 -11 -17 -18 -9 -20 -21 -21 -2 2 3 3 4
-1 -1 -1 -1 -1 -1 -2 -2 -2 -1 -1 -1 -1 -2 -3 -11 -16 -18 -20 -21 -23 -24 -23 -4 1 2 1
-1 -1 -1 -1 -1 -2 -3 -5 -6 -4 -2 -2 -2 -2 -4 -5 -19 -21 -21 -22 -22 -23 -26 -20 -6 0 1
-2 -2 -2 -2 -3 -7 -13 -17 -17 -16 -15 -12 -8 -9 -10 -8 -18 -19 -17 -21 -19 -19 -21 -25 -27 -21 -10
-2 -3 -3 -6 -12 -16 -18 -20 -20 -19 -19 -17 -16 -15 -14 -12 -17 -18 -17 -16 -19 -19 -18 -18 -19 -21 -22
-3 -5 -8 -13 -16 -18 -20 -21 -21 -20 -20 -20 -19 -19 -17 -17 -18 -18 -16 -16 -15 -16 -16 -17 -18 -17 -17
-4 -7 -10 -13 -17 -18 -19 -20 -21 -20 -20 -19 -19 -19 -19 -19 -20 -20 -18 -16 -16 -16 -15 -14 -14 -14 -15
-2 -5 -7 -10 -17 -18 -19 -20 -19 -19 -18 -18 -17 -17 -17 -16 -15 -16 -16 -16 -16 -16 -16 -16 -16 -15 -15

GFSFLT2_850_dewp_129.txt.gz
Dewpoint
10 10 9 9 9 8 4 3 3 2 -1 -2 -2 -1 -0 1 -0 -0 -1 -1 0 3 5 4 3 3 2
9 9 9 9 8 5 3 4 3 1 -1 -2 -1 -1 0 -0 -0 -0 -1 -2 3 4 5 5 4 2 1
9 9 9 8 5 3 4 3 2 -0 -1 -1 -1 -0 -0 -0 -0 -1 -1 -2 3 4 5 6 5 5 3
9 9 7 4 3 4 3 2 1 -1 -1 -1 -1 -0 -0 -0 -0 -1 -1 -2 3 4 5 5 5 3 4
8 8 5 3 4 3 2 0 -1 -1 -1 -1 -1 -0 -0 -1 -1 -1 -2 -2 3 4 5 5 5 5 4
7 6 4 4 2 1 -0 -1 -1 -1 -1 -1 -0 -0 -1 -1 -1 -1 -2 -2 3 4 5 5 5 5 4
7 5 5 2 1 -0 -1 -1 -1 -1 -1 -1 -1 -1 -1 -1 -1 -1 -1 -3 -0 4 5 3 2 2 3
4 3 2 1 1 -1 -1 -1 -1 -1 -1 -1 -1 -1 -1 -1 -2 -2 -3 -4 -7 3 4 4 3 3 3
4 4 4 3 0 -0 -1 -1 -1 -1 -1 -1 -1 -1 -1 -2 -6 -6 -2 -8 -12 1 3 4 4 3 3
4 3 1 1 -0 -1 -1 -1 -1 -1 -1 -1 -1 -1 -3 -8 -16 -17 -4 -9 -17 -13 3 3 3 4 2
4 2 -0 -1 -1 -1 -1 -1 -1 -1 -1 -1 -1 -1 -2 -10 -16 -16 -20 -16 -22 -20 -9 2 3 3 3
4 1 -0 -1 -1 -1 -2 -2 -2 -2 -2 -1 -2 -2 -3 -3 -6 -20 -20 -20 -22 -23 -22 -8 2 2 2
2 2 -0 -1 -2 -2 -2 -3 -6 -8 -9 -6 -5 -5 -7 -8 -10 -19 -20 -21 -20 -20 -24 -23 -11 -0 0
1 1 -1 -1 -2 -3 -4 -10 -15 -17 -17 -16 -15 -14 -14 -12 -10 -19 -18 -17 -20 -18 -19 -22 -24 -24 -13
0 1 -0 -2 -3 -6 -12 -15 -17 -19 -19 -18 -19 -17 -15 -13 -12 -17 -18 -16 -16 -18 -18 -17 -18 -18 -19
-0 -0 -1 -2 -4 -9 -9 -16 -18 -20 -20 -20 -20 -19 -17 -16 -17 -18 -18 -17 -16 -15 -15 -16 -16 -17 -17
-1 -1 -1 -2 -8 -10 -13 -16 -18 -20 -20 -20 -19 -19 -19 -18 -18 -19 -20 -18 -17 -16 -15 -15 -14 -14 -14

GFSFLT2_850_dewp_132.txt.gz
Dewpoint
9 8 8 9 10 9 8 8 8 6 4 3 0 -2 -2 -2 -2 -1 -1 -1 -1 2 4 5 5 5 3
9 8 9 10 9 8 8 8 7 5 4 2 -0 -2 -1 -2 -1 -1 -1 -1 -2 3 5 5 5 5 3
9 9 9 9 9 8 7 7 6 4 3 1 -1 -1 -2 -2 -1 -1 -1 -1 -1 3 4 5 4 3 3
9 9 9 8 7 7 6 7 5 4 3 0 -1 -1 -2 -1 -1 -1 -1 -2 -0 3 4 5 4 4 3
9 9 8 7 6 7 6 5 5 4 2 -0 -1 -1 -1 -1 -1 -1 -1 -2 -0 4 4 5 5 5 3
9 9 8 8 6 6 5 5 4 2 -0 -1 -1 -1 -1 -1 -1 -1 -1 -2 -0 4 5 4 4 4 3
8 7 7 7 6 5 4 3 2 -0 -1 -1 -1 -1 -1 -1 -1 -1 -1 -2 -1 4 5 4 3 3 3
6 5 5 5 5 4 2 2 1 -0 -1 -1 -1 -1 -1 -1 -1 -1 -2 -2 -3 3 4 3 3 3 2
5 5 4 4 4 3 3 2 1 -0 -1 -1 -1 -1 -1 -1 -1 -2 -6 -3 -6 2 4 4 3 3 3
5 5 4 4 4 4 3 2 1 -0 -1 -1 -1 -1 -1 -1 -5 -14 -5 -3 -12 -3 3 4 4 3 3
4 4 4 4 3 3 2 1 -0 -1 -1 -1 -1 -1 -2 -7 -11 -15 -15 -6 -16 -13 2 3 3 4 2
4 4 3 3 2 1 1 0 -0 -1 -1 -1 -1 -2 -2 -2 -5 -15 -19 -18 -18 -20 -7 2 3 3 3
3 3 4 3 2 -0 -1 -1 -1 -2 -2 -1 -1 -2 -2 -3 -4 -8 -21 -20 -19 -20 -20 -7 2 2 2
3 2 2 1 1 0 -0 -1 -2 -3 -4 -4 -3 -2 -4 -7 -8 -13 -20 -18 -21 -19 -21 -20 -8 0 1
1 1 1 0 -0 -0 -0 -2 -3 -6 -10 -11 -11 -10 -10 -12 -11 -9 -18 -17 -18 -18 -18 -21 -22 -17 -7
0 1 -0 -1 -1 -1 -1 -2 -4 -12 -14 -15 -16 -14 -13 -13 -12 -11 -17 -18 -16 -17 -17 -16 -17 -18 -20
-0 -0 -1 -1 -1 -2 -2 -3 -4 -7 -13 -16 -18 -17 -16 -14 -15 -14 -17 -18 -16 -15 -15 -15 -16 -16 -17

GFSFLT2_850_dewp_135.txt.gz
Dewpoint
8 9 9 8 9 9 9 9 9 9 8 8 8 4 3 0 -3 -2 -3 -2 -1 -2 -2 3 4 5 4
8 8 8 9 9 8 9 9 9 8 8 7 6 4 3 -1 -2 -2 -2 -1 -1 -2 1 4 4 4 3
8 8 8 7 8 9 9 9 8 8 7 6 5 4 2 -1 -2 -2 -1 -1 -2 -2 3 4 4 4 3
8 7 7 8 9 9 9 8 8 7 6 6 5 4 0 -1 -2 -1 -1 -1 -2 -1 3 4 4 4 3
8 7 7 9 8 8 9 8 6 5 5 5 5 2 -1 -1 -1 -1 -1 -2 -2 -1 3 4 4 4 4
8 8 9 8 8 8 8 8 5 5 4 5 4 1 -1 -1 -1 -1 -1 -2 -2 1 3 4 4 4 4
8 6 6 6 6 6 5 4 4 4 4 3 1 -0 -1 -1 -1 -1 -1 -2 -2 1 4 4 3 3 5
6 5 6 5 4 5 4 4 4 4 3 3 1 -0 -1 -0 -1 -1 -1 -2 -2 -1 4 4 3 3 4
5 5 5 5 5 5 4 3 3 3 2 1 1 -0 -1 -1 -1 -1 -1 -2 -5 -2 3 4 3 3 3
6 5 5 5 4 4 3 2 3 2 2 2 1 0 -0 -1 -1 -1 -2 -6 -4 -3 3 4 3 2 2
5 5 5 5 4 4 4 3 3 2 1 1 1 -0 -1 -3 -2 -3 -15 -5 -3 -9 2 3 3 3 2
4 4 4 4 4 4 3 3 3 2 1 0 0 -0 -1 -1 -5 -9 -15 -12 -5 -15 -0 3 3 3 3
3 3 3 3 3 3 3 3 2 1 0 0 -0 -0 -1 -1 -2 -3 -11 -19 -14 -18 -10 2 2 2 3
2 2 2 2 2 1 0 0 1 1 -0 -0 -1 -1 -1 -2 -2 -3 -5 -19 -19 -19 -20 -4 1 1 1
1 1 1 0 0 0 -0 -1 -1 -0 -1 -1 -2 -2 -2 -2 -3 -6 -10 -18 -19 -19 -19 -19 -5 0 1
-1 -1 -0 -0 -1 -1 -1 -1 -1 -2 -2 -2 -3 -3 -4 -4 -6 -9 -9 -16 -17 -18 -17 -19 -19 -12 -5
-2 -2 -1 -1 -1 -1 -2 -2 -3 -3 -3 -3 -5 -5 -7 -8 -10 -12 -8 -12 -17 -16 -16 -16 -18 -20 -20

GFSFLT2_850_dewp_138.txt.gz
Dewpoint
7 8 7 8 8 9 8 8 8 7 8 9 9 9 8 8 6 4 -1 -3 -3 -3 -3 -3 -1 0 3
9 8 8 9 8 7 7 7 7 8 8 9 9 8 7 7 5 3 -1 -3 -2 -2 -2 -2 2 2 2
8 8 7 8 7 7 6 7 7 7 8 8 7 7 6 6 5 1 -2 -2 -2 -1 -2 0 2 3 3
8 7 7 6 7 7 7 7 7 8 8 8 7 6 5 5 4 -0 -1 -1 -1 -2 -2 2 3 2 3
8 8 8 8 7 7 8 8 8 8 8 6 6 5 5 4 3 1 -1 -1 -1 -2 -2 2 3 3 3
9 9 9 8 8 7 7 7 7 6 6 5 4 4 4 4 2 0 -1 -1 -1 -2 -1 3 4 3 3
6 5 7 7 6 6 6 6 5 5 4 4 3 3 3 2 1 0 -0 -1 -1 -2 0 4 4 3 4
6 5 6 5 4 5 5 4 4 3 3 3 3 3 2 2 1 0 0 -1 -1 -1 1 4 3 3 4
6 5 6 5 4 4 4 4 4 3 3 3 3 3 2 2 0 1 0 -1 -1 -2 -0 3 3 3 3
4 5 5 6 4 4 4 4 4 3 3 3 2 2 2 1 1 1 -0 -1 -1 -3 -0 3 3 3 3
4 4 4 4 5 5 4 4 4 3 3 3 3 2 1 0 1 1 0 -1 -5 -6 -2 3 3 3 3
2 3 3 3 3 3 3 3 3 3 3 2 2 1 1 0 -0 -0 -1 -6 -8 -3 -4 2 3 3 3
0 1 2 2 2 2 2 2 2 1 1 1 1 0 -0 -1 -0 -0 -2 -11 -10 -4 -9 1 2 3 3
-0 0 1 1 1 1 0 0 0 0 0 -0 -0 -0 -0 -0 -0 -0 -1 -7 -18 -9 -15 0 1 2 2
-1 -1 -1 -1 -1 -0 -1 -0 -1 -0 -0 -0 -1 -1 -1 -1 -1 -1 -2 -2 -13 -18 -17 -5 1 1 1
-3 -3 -2 -2 -1 -1 -1 -1 -1 -1 -1 -1 -1 -2 -2 -3 -2 -2 -3 -4 -12 -18 -17 -16 -1 0 1
-3 -3 -3 -3 -2 -2 -2 -3 -2 -2 -2 -2 -2 -3 -3 -3 -3 -3 -3 -5 -15 -16 -16 -17 -15 -2 0